Regional Weather Roundup
Issued by NWS

Home | Current Version | Previous Version | Graphics & Text | Print | Product List | Glossary On
Versions: 1 2 3 4 5 6 7 8 9 10 11 12 13 14 15 16 17 18 19 20 21 22 23 24 25 26 27 28
000
ASUS45 KSLC 241010
RWRUT

UTAH REGIONAL WEATHER ROUNDUP
NATIONAL WEATHER SERVICE SALT LAKE CITY UT
400 AM MDT FRI OCT 24 2014

UTZ001>011-023>025-241100-

NORTHERN UTAH

CITY           SKY/WX    TMP DP  RH WIND       PRES   REMARKS
BRIGHAM CITY   CLOUDY    47  36  63 N5        30.12S
HILL AFB       PTCLDY    56  32  40 S5        30.12S
LOGAN          CLEAR     43  37  79 CALM      30.14R
OGDEN          PTCLDY    50  40  68 S3        30.11S
PROVO AIRPORT  CLEAR     48  28  46 SE6       30.15S
SALT LAKE CITY PTCLDY    49  42  77 N3        30.10F
VERNAL         MOCLDY    42  33  70 W5        30.22S
WENDOVER       PTCLDY    45  34  65 CALM      30.12S
HEBER CITY     CLEAR     37  28  70 CALM      30.19S
WEST JORDAN    CLEAR     55  37  50 CALM      30.12S

$$

UTZ012>022-026-027-241100-

SOUTHERN/CENTRAL UTAH

CITY           SKY/WX    TMP DP  RH WIND       PRES   REMARKS
BLANDING       PTCLDY    47  30  51 CALM      30.35F
BRYCE CANYON   PTCLDY    25  21  85 W3        30.36F
CEDAR CITY     PTCLDY    39  29  67 E6        30.23S WCI  35
DELTA          CLEAR     58  28  31 S13       30.15S
HANKSVILLE       N/A     43  32  65 CALM      30.21S
MILFORD        CLEAR     47  29  49 SW8       30.19S
MOAB/CYNLANDS  CLEAR     48  33  56 CALM      30.19S
PRICE          PTCLDY    46  33  60 NE7       30.25S
ST GEORGE      SUNNY     57  30  35 SE3       30.15F

$$

REGIONAL REPORTS     COLORADO/ARIZONA

CITY           SKY/WX    TMP DP  RH WIND       PRES   REMARKS
CRAIG, CO      CLEAR     32  28  85 CALM      30.27F
GRAND JUNCTION CLEAR     50  37  61 E13       30.22F
RIFLE          CLEAR     37  34  89 CALM      30.28F
MONTROSE       CLEAR     42  32  67 S6        30.31S
CORTEZ         CLEAR     36  29  75 E7        30.31F WCI  30
PAGE, AZ       CLEAR     57  32  38 W5        30.20S
GRAND CANYON   HAZE      30  24  78 CALM      30.34F VSB 1
KINGMAN        CLEAR     59  37  44 SE13      30.13F
FLAGSTAFF      PTCLDY    34  29  82 CALM      30.35F

$$

REGIONAL REPORTS    NEVADA/IDAHO/WYOMING

CITY           SKY/WX    TMP DP  RH WIND       PRES   REMARKS
LAS VEGAS, NV  CLEAR     64  36  35 SW8       30.01S
ELY            CLEAR     51  26  37 SW14      30.22S
ELKO           PTCLDY    38  19  46 NE6       30.13R WCI  33
POCATELLO, ID  CLOUDY    49  39  68 SW3       30.14S
BURLEY         CLOUDY    47  40  76 CALM      30.12S
EVANSTON, WY   CLEAR     47  23  38 SW14      30.21S
ROCK SPRINGS   MOCLDY    43  28  55 CALM      30.20S
KEMMERER       MOCLDY    41  27  56 CALM      30.22F

$$



USA.gov is the U.S. government's official web portal to all federal, state and local government web resources and services.